| time (UTC) | temp F | wind direction | speed MPH | gust MPH | rain 1hr in | rain 24hr in | rain mn in | humidity % | barometer mb |
| 20260831030518 | 78 | 0 | 0.0 | 0.0 | 0.00 | 0.00 | 0.00 | 80 | 1018.4 |
| 20260831030037 | 78 | 0 | 0.0 | 0.0 | 0.00 | 0.00 | 0.00 | 79 | 1018.4 |
| 20260831025518 | 78 | 0 | 0.0 | 0.0 | 0.00 | 0.00 | 0.00 | 79 | 1018.4 |
| 20260831025020 | 78 | 0 | 0.0 | 0.0 | 0.00 | 0.00 | 0.00 | 79 | 1018.5 |
| 20260831024538 | 78 | 0 | 0.0 | 0.0 | 0.00 | 0.00 | 0.00 | 79 | 1018.4 |
| 20260831024020 | 78 | 0 | 0.0 | 0.0 | 0.00 | 0.00 | 0.00 | 80 | 1018.4 |
| 20260831023520 | 78 | 0 | 0.0 | 0.0 | 0.00 | 0.00 | 0.00 | 80 | 1018.4 |
| 20260831023041 | 79 | 0 | 0.0 | 1.0 | 0.00 | 0.00 | 0.00 | 80 | 1018.3 |
| 20260831022517 | 79 | 0 | 0.0 | 1.0 | 0.00 | 0.00 | 0.00 | 80 | 1018.4 |
| 20260831022016 | 79 | 0 | 0.0 | 1.0 | 0.00 | 0.00 | 0.00 | 81 | 1018.3 |
| 20260831021550 | 79 | 122 | 0.0 | 1.0 | 0.00 | 0.00 | 0.00 | 81 | 1018.3 |
| 20260831021018 | 79 | 122 | 0.0 | 1.0 | 0.00 | 0.00 | 0.00 | 82 | 1018.2 |
| 20260831020520 | 79 | 122 | 0.0 | 4.0 | 0.00 | 0.00 | 0.00 | 82 | 1018.3 |
| 20260831020038 | 79 | 122 | 1.0 | 4.0 | 0.00 | 0.00 | 0.00 | 81 | 1018.2 |
| 20260831015524 | 79 | 75 | 2.0 | 4.0 | 0.00 | 0.00 | 0.00 | 79 | 1018.2 |
| 20260831015019 | 80 | 93 | 1.0 | 2.0 | 0.00 | 0.00 | 0.00 | 77 | 1018.2 |
| 20260831014535 | 80 | 0 | 0.0 | 0.0 | 0.00 | 0.00 | 0.00 | 76 | 1018.1 |
| 20260831014019 | 80 | 0 | 0.0 | 1.0 | 0.00 | 0.00 | 0.00 | 76 | 1018.1 |
| 20260831013517 | 80 | 0 | 0.0 | 1.0 | 0.00 | 0.00 | 0.00 | 75 | 1018.0 |
| 20260831013040 | 81 | 0 | 0.0 | 1.0 | 0.00 | 0.00 | 0.00 | 74 | 1017.9 |
| 20260831012518 | 81 | 0 | 0.0 | 0.0 | 0.00 | 0.00 | 0.00 | 73 | 1017.9 |
| 20260831012019 | 81 | 0 | 0.0 | 0.0 | 0.00 | 0.00 | 0.00 | 72 | 1017.9 |
| 20260831011540 | 81 | 0 | 0.0 | 0.0 | 0.00 | 0.00 | 0.00 | 71 | 1017.8 |
| 20260831011018 | 82 | 0 | 0.0 | 0.0 | 0.00 | 0.00 | 0.00 | 69 | 1017.7 |
| 20260831010517 | 82 | 0 | 0.0 | 0.0 | 0.00 | 0.00 | 0.00 | 69 | 1017.6 |
| 20260831010106 | 82 | 0 | 0.0 | 0.0 | 0.00 | 0.00 | 0.00 | 68 | 1017.7 |
| 20260831005519 | 83 | 0 | 0.0 | 0.0 | 0.00 | 0.00 | 0.00 | 67 | 1017.6 |
| 20260831005018 | 83 | 0 | 0.0 | 0.0 | 0.00 | 0.00 | 0.00 | 66 | 1017.5 |
| 20260831004547 | 84 | 0 | 0.0 | 0.0 | 0.00 | 0.00 | 0.00 | 65 | 1017.5 |
| 20260831004016 | 84 | 0 | 0.0 | 0.0 | 0.00 | 0.00 | 0.00 | 65 | 1017.4 |
| 20260831003519 | 85 | 0 | 0.0 | 0.0 | 0.00 | 0.00 | 0.00 | 62 | 1017.4 |
| 20260831003040 | 86 | 0 | 0.0 | 1.0 | 0.00 | 0.00 | 0.00 | 59 | 1017.3 |
| 20260831002519 | 86 | 0 | 0.0 | 1.0 | 0.00 | 0.00 | 0.00 | 59 | 1017.4 |
| 20260831002018 | 87 | 244 | 0.0 | 1.0 | 0.00 | 0.00 | 0.00 | 59 | 1017.3 |
| 20260831001552 | 87 | 0 | 0.0 | 1.0 | 0.00 | 0.00 | 0.00 | 58 | 1017.4 |
| 20260831001023 | 87 | 0 | 0.0 | 1.0 | 0.00 | 0.00 | 0.00 | 58 | 1017.3 |
| 20260831000518 | 88 | 0 | 0.0 | 1.0 | 0.00 | 0.00 | 0.00 | 57 | 1017.3 |
| 20260831000040 | 88 | 0 | 0.0 | 1.0 | 0.00 | 0.00 | 0.00 | 57 | 1017.5 |
| 20260830235520 | 90 | 245 | 0.0 | 1.0 | 0.00 | 0.00 | 0.00 | 55 | 1017.3 |
| 20260830235019 | 90 | 0 | 0.0 | 1.0 | 0.00 | 0.00 | 0.00 | 54 | 1017.3 |
| 20260830234540 | 91 | 242 | 0.0 | 1.0 | 0.00 | 0.00 | 0.00 | 53 | 1017.2 |
| 20260830234021 | 91 | 241 | 0.0 | 1.0 | 0.00 | 0.00 | 0.00 | 52 | 1017.2 |
| 20260830233520 | 91 | 0 | 0.0 | 4.0 | 0.00 | 0.00 | 0.00 | 53 | 1017.2 |
| 20260830233036 | 90 | 0 | 1.0 | 4.0 | 0.00 | 0.00 | 0.00 | 53 | 1017.3 |
| 20260830232522 | 90 | 0 | 0.0 | 3.0 | 0.00 | 0.00 | 0.00 | 53 | 1017.3 |
| 20260830232020 | 90 | 275 | 1.0 | 6.0 | 0.00 | 0.00 | 0.00 | 52 | 1017.2 |
| 20260830231536 | 91 | 216 | 2.0 | 6.0 | 0.00 | 0.00 | 0.00 | 52 | 1017.3 |
| 20260830231019 | 92 | 285 | 2.0 | 4.0 | 0.00 | 0.00 | 0.00 | 50 | 1017.3 |
| 20260830230519 | 92 | 270 | 1.0 | 5.0 | 0.00 | 0.00 | 0.00 | 52 | 1017.2 |
| 20260830230047 | 93 | 139 | 2.0 | 5.0 | 0.00 | 0.00 | 0.00 | 49 | 1017.2 |
| 20260830225518 | 94 | 264 | 0.0 | 3.0 | 0.00 | 0.00 | 0.00 | 47 | 1017.3 |
| 20260830225019 | 94 | 278 | 0.0 | 3.0 | 0.00 | 0.00 | 0.00 | 49 | 1017.3 |
| 20260830224547 | 93 | 278 | 0.0 | 4.0 | 0.00 | 0.00 | 0.00 | 50 | 1017.2 |
| 20260830224020 | 93 | 176 | 1.0 | 4.0 | 0.00 | 0.00 | 0.00 | 50 | 1017.1 |
| 20260830223523 | 93 | 248 | 1.0 | 4.0 | 0.00 | 0.00 | 0.00 | 51 | 1017.2 |
| 20260830223035 | 94 | 278 | 0.0 | 4.0 | 0.00 | 0.00 | 0.00 | 52 | 1017.2 |
| 20260830222520 | 93 | 123 | 0.0 | 4.0 | 0.00 | 0.00 | 0.00 | 54 | 1017.2 |
| 20260830222024 | 93 | 133 | 1.0 | 4.0 | 0.00 | 0.00 | 0.00 | 52 | 1017.3 |
| 20260830221537 | 93 | 0 | 0.0 | 4.0 | 0.00 | 0.00 | 0.00 | 51 | 1017.2 |
| 20260830221020 | 94 | 0 | 1.0 | 4.0 | 0.00 | 0.00 | 0.00 | 50 | 1017.3 |
| 20260830220518 | 94 | 136 | 0.0 | 4.0 | 0.00 | 0.00 | 0.00 | 52 | 1017.3 |
| 20260830220045 | 93 | 128 | 2.0 | 5.0 | 0.00 | 0.00 | 0.00 | 50 | 1017.4 |
| 20260830215521 | 94 | 160 | 0.0 | 5.0 | 0.00 | 0.00 | 0.00 | 51 | 1017.5 |
| 20260830215018 | 93 | 61 | 0.0 | 4.0 | 0.00 | 0.00 | 0.00 | 52 | 1017.5 |
| 20260830214541 | 93 | 61 | 1.0 | 4.0 | 0.00 | 0.00 | 0.00 | 53 | 1017.6 |
| 20260830214019 | 92 | 63 | 1.0 | 4.0 | 0.00 | 0.00 | 0.00 | 52 | 1017.7 |
| 20260830213524 | 92 | 70 | 2.0 | 4.0 | 0.00 | 0.00 | 0.00 | 53 | 1017.8 |
| 20260830213035 | 92 | 15 | 0.0 | 4.0 | 0.00 | 0.00 | 0.00 | 53 | 1017.8 |
| 20260830212516 | 92 | 79 | 2.0 | 4.0 | 0.00 | 0.00 | 0.00 | 53 | 1017.9 |
| 20260830212016 | 92 | 35 | 0.0 | 1.0 | 0.00 | 0.00 | 0.00 | 54 | 1017.9 |
| 20260830211538 | 91 | 0 | 0.0 | 2.0 | 0.00 | 0.00 | 0.00 | 55 | 1018.0 |
| 20260830211020 | 90 | 0 | 0.0 | 2.0 | 0.00 | 0.00 | 0.00 | 54 | 1018.0 |
| 20260830210517 | 90 | 283 | 0.0 | 1.0 | 0.00 | 0.00 | 0.00 | 56 | 1018.0 |
| 20260830210037 | 90 | 283 | 0.0 | 1.0 | 0.00 | 0.00 | 0.00 | 54 | 1018.0 |
| 20260830205520 | 90 | 0 | 0.0 | 1.0 | 0.00 | 0.00 | 0.00 | 55 | 1018.1 |
| 20260830205018 | 90 | 0 | 0.0 | 4.0 | 0.00 | 0.00 | 0.00 | 55 | 1018.1 |
| 20260830204536 | 90 | 0 | 1.0 | 4.0 | 0.00 | 0.00 | 0.00 | 53 | 1018.0 |
| 20260830204019 | 90 | 10 | 2.0 | 4.0 | 0.00 | 0.00 | 0.00 | 56 | 1018.0 |
| 20260830203516 | 91 | 358 | 1.0 | 4.0 | 0.00 | 0.00 | 0.00 | 54 | 1018.0 |
| 20260830203037 | 91 | 321 | 0.0 | 3.0 | 0.00 | 0.00 | 0.00 | 53 | 1018.0 |
| 20260830202520 | 91 | 286 | 1.0 | 3.0 | 0.00 | 0.00 | 0.00 | 53 | 1018.1 |
| 20260830202016 | 92 | 278 | 1.0 | 7.0 | 0.00 | 0.00 | 0.00 | 50 | 1018.1 |
| 20260830201536 | 93 | 0 | 2.0 | 7.0 | 0.00 | 0.00 | 0.00 | 50 | 1018.2 |
| 20260830201018 | 93 | 139 | 1.0 | 3.0 | 0.00 | 0.00 | 0.00 | 53 | 1018.2 |
| 20260830200517 | 91 | 263 | 0.0 | 3.0 | 0.00 | 0.00 | 0.00 | 51 | 1018.3 |
| 20260830200037 | 90 | 0 | 0.0 | 3.0 | 0.00 | 0.00 | 0.00 | 52 | 1018.3 |
| 20260830195519 | 91 | 266 | 0.0 | 3.0 | 0.00 | 0.00 | 0.00 | 54 | 1018.4 |
| 20260830195017 | 91 | 345 | 0.0 | 4.0 | 0.00 | 0.00 | 0.00 | 52 | 1018.3 |
| 20260830194536 | 92 | 354 | 2.0 | 4.0 | 0.00 | 0.00 | 0.00 | 51 | 1018.4 |
| 20260830194016 | 93 | 285 | 0.0 | 2.0 | 0.00 | 0.00 | 0.00 | 49 | 1018.5 |
| 20260830193520 | 93 | 41 | 0.0 | 5.0 | 0.00 | 0.00 | 0.00 | 49 | 1018.5 |
| 20260830193035 | 91 | 271 | 0.0 | 7.0 | 0.00 | 0.00 | 0.00 | 49 | 1018.5 |
| 20260830192520 | 91 | 287 | 3.0 | 7.0 | 0.00 | 0.00 | 0.00 | 49 | 1018.7 |
| 20260830192018 | 91 | 281 | 1.0 | 6.0 | 0.00 | 0.00 | 0.00 | 50 | 1018.8 |
| 20260830191537 | 91 | 276 | 3.0 | 6.0 | 0.00 | 0.00 | 0.00 | 49 | 1018.8 |
| 20260830191020 | 92 | 287 | 2.0 | 4.0 | 0.00 | 0.00 | 0.00 | 48 | 1019.0 |
| 20260830190520 | 92 | 21 | 1.0 | 3.0 | 0.00 | 0.00 | 0.00 | 51 | 1019.0 |
| 20260830190041 | 91 | 269 | 1.0 | 3.0 | 0.00 | 0.00 | 0.00 | 48 | 1019.2 |
| 20260830185520 | 91 | 244 | 1.0 | 4.0 | 0.00 | 0.00 | 0.00 | 48 | 1019.2 |
| 20260830185019 | 91 | 240 | 1.0 | 5.0 | 0.00 | 0.00 | 0.00 | 52 | 1019.3 |
| 20260830184534 | 90 | 266 | 1.0 | 5.0 | 0.00 | 0.00 | 0.00 | 53 | 1019.4 |
| 20260830184021 | 90 | 285 | 1.0 | 8.0 | 0.00 | 0.00 | 0.00 | 52 | 1019.5 |
| 20260830183521 | 89 | 253 | 3.0 | 8.0 | 0.00 | 0.00 | 0.00 | 53 | 1019.6 |
| 20260830183037 | 89 | 299 | 3.0 | 8.0 | 0.00 | 0.00 | 0.00 | 52 | 1019.8 |
| 20260830182519 | 90 | 288 | 3.0 | 9.0 | 0.00 | 0.00 | 0.00 | 53 | 1019.7 |
| 20260830182018 | 90 | 296 | 2.0 | 11.0 | 0.00 | 0.00 | 0.00 | 53 | 1019.9 |
| 20260830181545 | 89 | 240 | 6.0 | 11.0 | 0.00 | 0.00 | 0.00 | 51 | 1019.9 |
| 20260830181020 | 89 | 295 | 4.0 | 10.0 | 0.00 | 0.00 | 0.00 | 52 | 1019.9 |
| 20260830180517 | 89 | 251 | 4.0 | 10.0 | 0.00 | 0.00 | 0.00 | 53 | 1019.9 |
| 20260830180052 | 90 | 242 | 4.0 | 10.0 | 0.00 | 0.00 | 0.00 | 52 | 1019.9 |
| 20260830175520 | 90 | 302 | 2.0 | 7.0 | 0.00 | 0.00 | 0.00 | 55 | 1020.1 |
| 20260830175020 | 90 | 229 | 3.0 | 10.0 | 0.00 | 0.00 | 0.00 | 54 | 1020.1 |
| 20260830174541 | 90 | 146 | 3.0 | 10.0 | 0.00 | 0.00 | 0.00 | 55 | 1020.2 |
| 20260830174026 | 89 | 272 | 4.0 | 10.0 | 0.00 | 0.00 | 0.00 | 54 | 1020.2 |
| 20260830173520 | 89 | 278 | 4.0 | 9.0 | 0.00 | 0.00 | 0.00 | 55 | 1020.2 |
| 20260830173058 | 89 | 287 | 4.0 | 9.0 | 0.00 | 0.00 | 0.00 | 56 | 1020.2 |
| 20260830172516 | 89 | 227 | 3.0 | 7.0 | 0.00 | 0.00 | 0.00 | 55 | 1020.3 |
| 20260830172018 | 88 | 259 | 3.0 | 10.0 | 0.00 | 0.00 | 0.00 | 57 | 1020.3 |
| 20260830171550 | 88 | 281 | 2.0 | 10.0 | 0.00 | 0.00 | 0.00 | 56 | 1020.3 |
| 20260830171025 | 89 | 296 | 4.0 | 10.0 | 0.00 | 0.00 | 0.00 | 55 | 1020.3 |
| 20260830170518 | 89 | 278 | 4.0 | 7.0 | 0.00 | 0.00 | 0.00 | 55 | 1020.5 |
| 20260830170039 | 88 | 302 | 3.0 | 7.0 | 0.00 | 0.00 | 0.00 | 57 | 1020.5 |
| 20260830165519 | 87 | 152 | 4.0 | 8.0 | 0.00 | 0.00 | 0.00 | 59 | 1020.5 |
| 20260830165019 | 88 | 288 | 4.0 | 8.0 | 0.00 | 0.00 | 0.00 | 56 | 1020.6 |
| 20260830164535 | 88 | 229 | 3.0 | 8.0 | 0.00 | 0.00 | 0.00 | 59 | 1020.7 |
| 20260830164017 | 87 | 248 | 3.0 | 8.0 | 0.00 | 0.00 | 0.00 | 61 | 1020.7 |
| 20260830163524 | 88 | 278 | 4.0 | 8.0 | 0.00 | 0.00 | 0.00 | 61 | 1020.7 |
| 20260830163038 | 87 | 224 | 4.0 | 8.0 | 0.00 | 0.00 | 0.00 | 60 | 1020.6 |
| 20260830162521 | 88 | 267 | 2.0 | 9.0 | 0.00 | 0.00 | 0.00 | 62 | 1020.6 |
| 20260830162019 | 87 | 245 | 4.0 | 9.0 | 0.00 | 0.00 | 0.00 | 61 | 1020.6 |
| 20260830161542 | 87 | 262 | 1.0 | 8.0 | 0.00 | 0.00 | 0.00 | 64 | 1020.6 |
| 20260830161019 | 88 | 226 | 4.0 | 8.0 | 0.00 | 0.00 | 0.00 | 63 | 1020.7 |
| 20260830160517 | 88 | 134 | 2.0 | 7.0 | 0.00 | 0.00 | 0.00 | 64 | 1020.6 |
| 20260830160036 | 88 | 0 | 2.0 | 7.0 | 0.00 | 0.00 | 0.00 | 64 | 1020.7 |
| 20260830155522 | 87 | 129 | 1.0 | 5.0 | 0.00 | 0.00 | 0.00 | 67 | 1020.7 |
| 20260830155016 | 86 | 0 | 2.0 | 6.0 | 0.00 | 0.00 | 0.00 | 67 | 1020.7 |
| 20260830154535 | 86 | 264 | 2.0 | 7.0 | 0.00 | 0.00 | 0.00 | 64 | 1020.6 |
| 20260830154020 | 86 | 143 | 2.0 | 7.0 | 0.00 | 0.00 | 0.00 | 66 | 1020.8 |
| 20260830153518 | 86 | 131 | 3.0 | 7.0 | 0.00 | 0.00 | 0.00 | 66 | 1020.7 |
| 20260830153038 | 85 | 128 | 1.0 | 6.0 | 0.00 | 0.00 | 0.00 | 68 | 1020.6 |
| 20260830152519 | 85 | 269 | 3.0 | 6.0 | 0.00 | 0.00 | 0.00 | 67 | 1020.6 |
| 20260830152018 | 85 | 257 | 1.0 | 5.0 | 0.00 | 0.00 | 0.00 | 68 | 1020.6 |
| 20260830151540 | 85 | 143 | 2.0 | 5.0 | 0.00 | 0.00 | 0.00 | 67 | 1020.6 |
| 20260830151018 | 84 | 141 | 2.0 | 5.0 | 0.00 | 0.00 | 0.00 | 69 | 1020.6 |
| 20260830150520 | 84 | 183 | 3.0 | 5.0 | 0.00 | 0.00 | 0.00 | 70 | 1020.5 |
| 20260830150037 | 84 | 150 | 1.0 | 3.0 | 0.00 | 0.00 | 0.00 | 70 | 1020.4 |
| 20260830145520 | 84 | 131 | 1.0 | 3.0 | 0.00 | 0.00 | 0.00 | 69 | 1020.3 |
| 20260830145019 | 84 | 137 | 0.0 | 5.0 | 0.00 | 0.00 | 0.00 | 70 | 1020.4 |
| 20260830144537 | 84 | 139 | 1.0 | 6.0 | 0.00 | 0.00 | 0.00 | 72 | 1020.3 |
| 20260830144021 | 83 | 279 | 2.0 | 6.0 | 0.00 | 0.00 | 0.00 | 70 | 1020.3 |
| 20260830143517 | 83 | 274 | 1.0 | 5.0 | 0.00 | 0.00 | 0.00 | 71 | 1020.2 |
| 20260830143036 | 82 | 0 | 0.0 | 4.0 | 0.00 | 0.00 | 0.00 | 73 | 1020.2 |
| 20260830142520 | 81 | 174 | 1.0 | 5.0 | 0.00 | 0.00 | 0.00 | 74 | 1020.0 |
| 20260830142018 | 81 | 124 | 2.0 | 5.0 | 0.00 | 0.00 | 0.00 | 73 | 1020.1 |
| 20260830141536 | 81 | 158 | 0.0 | 4.0 | 0.00 | 0.00 | 0.00 | 73 | 1020.1 |
| 20260830141019 | 80 | 267 | 0.0 | 4.0 | 0.00 | 0.00 | 0.00 | 76 | 1020.1 |
| 20260830140523 | 80 | 257 | 1.0 | 4.0 | 0.00 | 0.00 | 0.00 | 75 | 1020.0 |
| 20260830140037 | 80 | 222 | 0.0 | 3.0 | 0.00 | 0.00 | 0.00 | 76 | 1020.0 |
| 20260830135521 | 80 | 0 | 1.0 | 3.0 | 0.00 | 0.00 | 0.00 | 76 | 1019.9 |
| 20260830135022 | 79 | 148 | 1.0 | 3.0 | 0.00 | 0.00 | 0.00 | 77 | 1019.8 |
| 20260830134546 | 78 | 143 | 0.0 | 2.0 | 0.00 | 0.00 | 0.00 | 78 | 1019.8 |
| 20260830134017 | 78 | 19 | 0.0 | 2.0 | 0.00 | 0.00 | 0.00 | 78 | 1019.8 |
| 20260830133518 | 78 | 0 | 0.0 | 4.0 | 0.00 | 0.00 | 0.00 | 78 | 1019.8 |
| 20260830133040 | 77 | 0 | 0.0 | 4.0 | 0.00 | 0.00 | 0.00 | 80 | 1019.8 |
| 20260830132520 | 77 | 143 | 0.0 | 3.0 | 0.00 | 0.00 | 0.00 | 79 | 1019.8 |
| 20260830132020 | 76 | 150 | 0.0 | 3.0 | 0.00 | 0.00 | 0.00 | 81 | 1019.8 |
| 20260830131545 | 76 | 148 | 0.0 | 4.0 | 0.00 | 0.00 | 0.00 | 80 | 1019.8 |
| 20260830131019 | 75 | 141 | 0.0 | 4.0 | 0.00 | 0.00 | 0.00 | 81 | 1019.7 |
| 20260830130518 | 75 | 142 | 1.0 | 5.0 | 0.00 | 0.00 | 0.00 | 81 | 1019.7 |
| 20260830130038 | 74 | 207 | 2.0 | 5.0 | 0.00 | 0.00 | 0.00 | 82 | 1019.9 |
| 20260830125519 | 75 | 162 | 1.0 | 5.0 | 0.00 | 0.00 | 0.00 | 82 | 1019.8 |
| 20260830125019 | 74 | 118 | 1.0 | 2.0 | 0.00 | 0.00 | 0.00 | 82 | 1019.9 |
| 20260830124537 | 74 | 60 | 0.0 | 2.0 | 0.00 | 0.00 | 0.00 | 82 | 1019.7 |
| 20260830124019 | 74 | 134 | 0.0 | 2.0 | 0.00 | 0.00 | 0.00 | 83 | 1019.8 |
| 20260830123515 | 73 | 134 | 0.0 | 2.0 | 0.00 | 0.00 | 0.00 | 83 | 1019.7 |
| 20260830123038 | 73 | 134 | 0.0 | 2.0 | 0.00 | 0.00 | 0.00 | 84 | 1019.6 |
| 20260830122519 | 72 | 0 | 0.0 | 2.0 | 0.00 | 0.00 | 0.00 | 85 | 1019.7 |
| 20260830122019 | 72 | 0 | 0.0 | 2.0 | 0.00 | 0.00 | 0.00 | 85 | 1019.5 |
| 20260830121538 | 71 | 141 | 0.0 | 2.0 | 0.00 | 0.00 | 0.00 | 86 | 1019.4 |
| 20260830121018 | 71 | 141 | 0.0 | 2.0 | 0.00 | 0.00 | 0.00 | 86 | 1019.4 |
| 20260830120520 | 70 | 141 | 0.0 | 2.0 | 0.00 | 0.00 | 0.00 | 87 | 1019.4 |
| 20260830120034 | 70 | 125 | 0.0 | 1.0 | 0.00 | 0.00 | 0.00 | 88 | 1019.4 |
| 20260830115518 | 69 | 0 | 0.0 | 1.0 | 0.00 | 0.00 | 0.00 | 88 | 1019.4 |
| 20260830115022 | 69 | 125 | 0.0 | 1.0 | 0.00 | 0.00 | 0.00 | 89 | 1019.4 |
| 20260830114547 | 68 | 125 | 0.0 | 1.0 | 0.00 | 0.00 | 0.00 | 90 | 1019.4 |
| 20260830114018 | 68 | 125 | 0.0 | 1.0 | 0.00 | 0.00 | 0.00 | 91 | 1019.4 |
| 20260830113518 | 67 | 0 | 0.0 | 1.0 | 0.00 | 0.00 | 0.00 | 91 | 1019.4 |
| 20260830113040 | 67 | 0 | 0.0 | 1.0 | 0.00 | 0.00 | 0.00 | 91 | 1019.4 |
| 20260830112519 | 67 | 125 | 0.0 | 1.0 | 0.00 | 0.00 | 0.00 | 91 | 1019.3 |
| 20260830112025 | 67 | 125 | 0.0 | 1.0 | 0.00 | 0.00 | 0.00 | 91 | 1019.3 |
| 20260830111539 | 67 | 0 | 0.0 | 1.0 | 0.00 | 0.00 | 0.00 | 91 | 1019.2 |
| 20260830111020 | 67 | 0 | 0.0 | 0.0 | 0.00 | 0.00 | 0.00 | 91 | 1019.1 |
| 20260830110520 | 67 | 0 | 0.0 | 0.0 | 0.00 | 0.00 | 0.00 | 91 | 1019.0 |
| 20260830110041 | 67 | 0 | 0.0 | 0.0 | 0.00 | 0.00 | 0.00 | 90 | 1019.1 |
| 20260830105520 | 67 | 0 | 0.0 | 0.0 | 0.00 | 0.00 | 0.00 | 90 | 1019.0 |
| 20260830105019 | 67 | 0 | 0.0 | 0.0 | 0.00 | 0.00 | 0.00 | 90 | 1019.1 |
| 20260830104536 | 67 | 0 | 0.0 | 0.0 | 0.00 | 0.00 | 0.00 | 90 | 1019.1 |
| 20260830104016 | 67 | 0 | 0.0 | 0.0 | 0.00 | 0.00 | 0.00 | 90 | 1019.0 |
| 20260830103515 | 67 | 0 | 0.0 | 0.0 | 0.00 | 0.00 | 0.00 | 90 | 1019.1 |
| 20260830103037 | 67 | 0 | 0.0 | 0.0 | 0.00 | 0.00 | 0.00 | 90 | 1018.9 |
| 20260830102517 | 67 | 0 | 0.0 | 0.0 | 0.00 | 0.00 | 0.00 | 90 | 1018.7 |
| 20260830102018 | 67 | 0 | 0.0 | 0.0 | 0.00 | 0.00 | 0.00 | 90 | 1018.8 |
| 20260830101535 | 67 | 0 | 0.0 | 0.0 | 0.00 | 0.00 | 0.00 | 90 | 1018.7 |
| 20260830101019 | 67 | 0 | 0.0 | 0.0 | 0.00 | 0.00 | 0.00 | 90 | 1018.7 |
| 20260830100517 | 67 | 0 | 0.0 | 0.0 | 0.00 | 0.00 | 0.00 | 90 | 1018.8 |
| 20260830100036 | 67 | 0 | 0.0 | 0.0 | 0.00 | 0.00 | 0.00 | 90 | 1018.8 |
| 20260830095520 | 67 | 0 | 0.0 | 0.0 | 0.00 | 0.00 | 0.00 | 90 | 1018.9 |
| 20260830095016 | 67 | 0 | 0.0 | 0.0 | 0.00 | 0.00 | 0.00 | 89 | 1018.9 |
| 20260830094538 | 68 | 0 | 0.0 | 0.0 | 0.00 | 0.00 | 0.00 | 89 | 1018.9 |
| 20260830094024 | 68 | 0 | 0.0 | 0.0 | 0.00 | 0.00 | 0.00 | 89 | 1018.9 |
| 20260830093521 | 68 | 0 | 0.0 | 0.0 | 0.00 | 0.00 | 0.00 | 89 | 1018.8 |
| 20260830093054 | 68 | 0 | 0.0 | 0.0 | 0.00 | 0.00 | 0.00 | 89 | 1019.0 |
| 20260830092518 | 68 | 0 | 0.0 | 0.0 | 0.00 | 0.00 | 0.00 | 89 | 1018.9 |
| 20260830092017 | 68 | 0 | 0.0 | 0.0 | 0.00 | 0.00 | 0.00 | 89 | 1018.8 |
| 20260830091536 | 68 | 0 | 0.0 | 0.0 | 0.00 | 0.00 | 0.00 | 89 | 1019.0 |
| 20260830091020 | 67 | 0 | 0.0 | 0.0 | 0.00 | 0.00 | 0.00 | 89 | 1018.9 |
| 20260830090518 | 68 | 0 | 0.0 | 0.0 | 0.00 | 0.00 | 0.00 | 89 | 1018.9 |
| 20260830090047 | 68 | 0 | 0.0 | 0.0 | 0.00 | 0.00 | 0.00 | 89 | 1019.0 |
| 20260830085518 | 68 | 0 | 0.0 | 0.0 | 0.00 | 0.00 | 0.00 | 89 | 1019.1 |
| 20260830085020 | 68 | 0 | 0.0 | 0.0 | 0.00 | 0.00 | 0.00 | 89 | 1019.0 |
| 20260830084536 | 68 | 0 | 0.0 | 0.0 | 0.00 | 0.00 | 0.00 | 89 | 1019.1 |
| 20260830084017 | 68 | 0 | 0.0 | 0.0 | 0.00 | 0.00 | 0.00 | 89 | 1019.1 |
| 20260830083517 | 68 | 0 | 0.0 | 0.0 | 0.00 | 0.00 | 0.00 | 89 | 1019.1 |
| 20260830083036 | 68 | 0 | 0.0 | 0.0 | 0.00 | 0.00 | 0.00 | 89 | 1019.1 |
| 20260830082519 | 68 | 0 | 0.0 | 0.0 | 0.00 | 0.00 | 0.00 | 88 | 1019.1 |
| 20260830082017 | 68 | 0 | 0.0 | 0.0 | 0.00 | 0.00 | 0.00 | 88 | 1019.1 |
| 20260830081535 | 68 | 0 | 0.0 | 0.0 | 0.00 | 0.00 | 0.00 | 88 | 1019.1 |
| 20260830081018 | 68 | 0 | 0.0 | 0.0 | 0.00 | 0.00 | 0.00 | 88 | 1019.0 |
| 20260830080520 | 68 | 0 | 0.0 | 0.0 | 0.00 | 0.00 | 0.00 | 88 | 1019.1 |
| 20260830080043 | 68 | 0 | 0.0 | 0.0 | 0.00 | 0.00 | 0.00 | 88 | 1019.1 |
| 20260830075520 | 68 | 0 | 0.0 | 0.0 | 0.00 | 0.00 | 0.00 | 88 | 1019.1 |
| 20260830075022 | 68 | 0 | 0.0 | 0.0 | 0.00 | 0.00 | 0.00 | 88 | 1019.1 |
| 20260830074553 | 68 | 0 | 0.0 | 0.0 | 0.00 | 0.00 | 0.00 | 88 | 1019.1 |
| 20260830074020 | 68 | 0 | 0.0 | 0.0 | 0.00 | 0.00 | 0.00 | 88 | 1019.0 |
| 20260830073516 | 68 | 0 | 0.0 | 0.0 | 0.00 | 0.00 | 0.00 | 88 | 1019.1 |
| 20260830073038 | 68 | 0 | 0.0 | 0.0 | 0.00 | 0.00 | 0.00 | 87 | 1019.2 |
| 20260830072522 | 69 | 0 | 0.0 | 0.0 | 0.00 | 0.00 | 0.00 | 88 | 1019.1 |
| 20260830072023 | 69 | 0 | 0.0 | 0.0 | 0.00 | 0.00 | 0.00 | 87 | 1019.2 |
| 20260830071540 | 69 | 0 | 0.0 | 0.0 | 0.00 | 0.00 | 0.00 | 87 | 1019.2 |
| 20260830071024 | 69 | 0 | 0.0 | 0.0 | 0.00 | 0.00 | 0.00 | 87 | 1019.3 |
| 20260830070517 | 69 | 0 | 0.0 | 0.0 | 0.00 | 0.00 | 0.00 | 87 | 1019.3 |
| 20260830070038 | 69 | 0 | 0.0 | 0.0 | 0.00 | 0.00 | 0.00 | 87 | 1019.4 |
| 20260830065516 | 69 | 0 | 0.0 | 0.0 | 0.00 | 0.00 | 0.00 | 87 | 1019.4 |
| 20260830065022 | 69 | 0 | 0.0 | 0.0 | 0.00 | 0.00 | 0.00 | 87 | 1019.3 |
| 20260830064540 | 69 | 0 | 0.0 | 0.0 | 0.00 | 0.00 | 0.00 | 86 | 1019.5 |
| 20260830064020 | 69 | 0 | 0.0 | 0.0 | 0.00 | 0.00 | 0.00 | 86 | 1019.5 |
| 20260830063520 | 69 | 0 | 0.0 | 0.0 | 0.00 | 0.00 | 0.00 | 86 | 1019.5 |
| 20260830063037 | 69 | 0 | 0.0 | 0.0 | 0.00 | 0.00 | 0.00 | 86 | 1019.4 |
| 20260830062519 | 69 | 0 | 0.0 | 0.0 | 0.00 | 0.00 | 0.00 | 86 | 1019.6 |
| 20260830062019 | 69 | 0 | 0.0 | 0.0 | 0.00 | 0.00 | 0.00 | 86 | 1019.6 |
| 20260830061536 | 69 | 0 | 0.0 | 0.0 | 0.00 | 0.00 | 0.00 | 86 | 1019.6 |
| 20260830061019 | 70 | 0 | 0.0 | 0.0 | 0.00 | 0.00 | 0.00 | 85 | 1019.6 |
| 20260830060520 | 70 | 0 | 0.0 | 0.0 | 0.00 | 0.00 | 0.00 | 85 | 1019.5 |
| 20260830060038 | 70 | 0 | 0.0 | 0.0 | 0.00 | 0.00 | 0.00 | 85 | 1019.4 |
| 20260830055516 | 70 | 0 | 0.0 | 0.0 | 0.00 | 0.00 | 0.00 | 85 | 1019.6 |
| 20260830055020 | 70 | 0 | 0.0 | 0.0 | 0.00 | 0.00 | 0.00 | 84 | 1019.6 |
| 20260830054546 | 70 | 0 | 0.0 | 0.0 | 0.00 | 0.00 | 0.00 | 84 | 1019.6 |
| 20260830054023 | 70 | 0 | 0.0 | 0.0 | 0.00 | 0.00 | 0.00 | 84 | 1019.5 |
| 20260830053518 | 70 | 0 | 0.0 | 0.0 | 0.00 | 0.00 | 0.00 | 84 | 1019.6 |
| 20260830053039 | 70 | 0 | 0.0 | 0.0 | 0.00 | 0.00 | 0.00 | 84 | 1019.5 |
| 20260830052522 | 70 | 0 | 0.0 | 0.0 | 0.00 | 0.00 | 0.00 | 85 | 1019.4 |
| 20260830052016 | 70 | 0 | 0.0 | 0.0 | 0.00 | 0.00 | 0.00 | 85 | 1019.4 |
| 20260830051546 | 71 | 0 | 0.0 | 0.0 | 0.00 | 0.00 | 0.00 | 84 | 1019.5 |
| 20260830051022 | 71 | 0 | 0.0 | 0.0 | 0.00 | 0.00 | 0.00 | 84 | 1019.5 |
| 20260830050518 | 71 | 0 | 0.0 | 0.0 | 0.00 | 0.00 | 0.00 | 83 | 1019.5 |
| 20260830050038 | 71 | 0 | 0.0 | 0.0 | 0.00 | 0.00 | 0.00 | 82 | 1019.6 |
| 20260830045519 | 71 | 0 | 0.0 | 0.0 | 0.00 | 0.00 | 0.00 | 82 | 1019.7 |
| 20260830045019 | 71 | 0 | 0.0 | 1.0 | 0.00 | 0.00 | 0.00 | 82 | 1019.7 |
| 20260830044542 | 71 | 0 | 0.0 | 1.0 | 0.00 | 0.00 | 0.00 | 82 | 1019.6 |
| 20260830044019 | 71 | 0 | 0.0 | 1.0 | 0.00 | 0.00 | 0.00 | 82 | 1019.5 |
| 20260830043517 | 71 | 125 | 0.0 | 2.0 | 0.00 | 0.00 | 0.00 | 82 | 1019.5 |
| 20260830043037 | 71 | 125 | 0.0 | 2.0 | 0.00 | 0.00 | 0.00 | 83 | 1019.5 |
| 20260830042516 | 71 | 0 | 0.0 | 1.0 | 0.00 | 0.00 | 0.00 | 83 | 1019.6 |
| 20260830042023 | 71 | 0 | 0.0 | 0.0 | 0.00 | 0.00 | 0.00 | 83 | 1019.4 |
| 20260830041607 | 72 | 0 | 0.0 | 1.0 | 0.00 | 0.00 | 0.00 | 82 | 1019.6 |
| 20260830041021 | 72 | 0 | 0.0 | 1.0 | 0.00 | 0.00 | 0.00 | 82 | 1019.4 |
| 20260830040518 | 72 | 0 | 0.0 | 1.0 | 0.00 | 0.00 | 0.00 | 82 | 1019.4 |
| 20260830040048 | 72 | 125 | 0.0 | 1.0 | 0.00 | 0.00 | 0.00 | 82 | 1019.4 |
| 20260830035517 | 72 | 125 | 0.0 | 0.0 | 0.00 | 0.00 | 0.00 | 81 | 1019.5 |
| 20260830035020 | 72 | 0 | 0.0 | 0.0 | 0.00 | 0.00 | 0.00 | 81 | 1019.5 |
| 20260830034540 | 72 | 0 | 0.0 | 0.0 | 0.00 | 0.00 | 0.00 | 81 | 1019.5 |
| 20260830034017 | 73 | 0 | 0.0 | 0.0 | 0.00 | 0.00 | 0.00 | 81 | 1019.6 |
| 20260830033520 | 73 | 0 | 0.0 | 1.0 | 0.00 | 0.00 | 0.00 | 80 | 1019.6 |
| 20260830033038 | 73 | 0 | 0.0 | 1.0 | 0.00 | 0.00 | 0.00 | 80 | 1019.5 |
| 20260830032519 | 73 | 125 | 0.0 | 1.0 | 0.00 | 0.00 | 0.00 | 79 | 1019.4 |
| 20260830032020 | 74 | 0 | 0.0 | 2.0 | 0.00 | 0.00 | 0.00 | 79 | 1019.4 |
| 20260830031538 | 74 | 125 | 0.0 | 2.0 | 0.00 | 0.00 | 0.00 | 79 | 1019.3 |
| 20260830031020 | 74 | 125 | 1.0 | 2.0 | 0.00 | 0.00 | 0.00 | 78 | 1019.2 |